Weather History for Redding, CA

Change the Weather History Date:

Sunday, September 29, 2013

  Actual Average Record
Temperature  
Mean Temperature 68 °F -  
Max Temperature 72 °F 86 °F 106 °F (2010)
Min Temperature 64 °F 55 °F 44 °F (2007)
Degree Days  
Heating Degree Days 0    
Cooling Degree Days 3    
Growing Degree Days 18 (Base 50)    
Moisture  
Dew Point 51 °F    
Average Humidity 53    
Maximum Humidity 63    
Minimum Humidity 42    
Precipitation  
Precipitation 0.00 in 0.03 in 0.39 in (1989)
Month to date precipitation 1.36 0.61  
Year to date precipitation 10.66 21.74  
Since 1 July precipitation 1.36 0.88  
Sea Level Pressure  
Sea Level Pressure 29.91 in    
Wind  
Wind Speed 15 mph (South)    
Max Wind Speed 32 mph    
Max Gust Speed 40 mph    
Visibility 10 miles    
Events      
T = Trace of Precipitation, MM = Missing Value Source: NWS Daily Summary

Daily Weather History Graph

Daily Weather History Graph

Search for Another Location

Airport:

Trip Planner

Search our weather history database for the weather conditions in past years. The results will help you decide how hot, cold, wet, or windy it might be!

Date:

Astronomy

Sep. 29, 2013 Rise Set
Actual Time 7:04 AM PDT 6:54 PM PDT
Civil Twilight 6:36 AM PDT 7:21 PM PDT
Nautical Twilight 6:05 AM PDT 7:52 PM PDT
Astronomical Twilight 5:33 AM PDT 8:24 PM PDT
Moon 1:49 AM PDT (9/29) 3:54 PM PDT (9/29)
Length of Visible Light 12h 44m
Length of Day
11h 50m
Waning Crescent, 26% of the Moon is Illuminated
Sep 29
Waning Crescent
Oct 4
New
Oct 11
First Quarter
Oct 18
Full
Oct 26
Last Quarter

Hourly Weather History & Observations

Time (PDT) Temp. Dew Point Humidity Pressure Visibility Wind Dir Wind Speed Gust Speed Precip Events Conditions
12:53 AM 66.9 °F 42.1 °F 40% 29.93 in 10.0 mi South 9.2 mph - N/A   Clear
1:53 AM 66.9 °F 43.0 °F 42% 29.93 in 10.0 mi South 9.2 mph - N/A   Clear
2:53 AM 66.9 °F 43.0 °F 42% 29.91 in 10.0 mi South 12.7 mph - N/A   Partly Cloudy
3:53 AM 66.0 °F 42.1 °F 42% 29.89 in 10.0 mi South 18.4 mph - N/A   Scattered Clouds
4:53 AM 66.0 °F 44.1 °F 45% 29.89 in 10.0 mi SSW 16.1 mph 24.2 mph N/A   Mostly Cloudy
5:53 AM 64.0 °F 46.9 °F 54% 29.91 in 10.0 mi SSW 12.7 mph 21.9 mph N/A   Overcast
6:53 AM 64.0 °F 48.0 °F 56% 29.90 in 10.0 mi SSW 10.4 mph 19.6 mph N/A   Overcast
7:53 AM 64.0 °F 48.9 °F 58% 29.92 in 10.0 mi SW 9.2 mph 18.4 mph N/A   Overcast
8:53 AM 64.9 °F 50.0 °F 58% 29.95 in 10.0 mi SW 8.1 mph - N/A   Overcast
9:53 AM 66.0 °F 50.0 °F 56% 29.95 in 10.0 mi SSW 18.4 mph 24.2 mph N/A   Overcast
10:53 AM 64.9 °F 52.0 °F 63% 29.96 in 10.0 mi SSW 17.3 mph 24.2 mph N/A   Overcast
11:53 AM 66.9 °F 52.0 °F 59% 29.95 in 10.0 mi South 20.7 mph 28.8 mph N/A   Overcast
12:53 PM 68.0 °F 52.0 °F 56% 29.95 in 10.0 mi South 16.1 mph 24.2 mph N/A   Overcast
1:53 PM 70.0 °F 53.1 °F 55% 29.92 in 10.0 mi South 18.4 mph 27.6 mph N/A   Overcast
2:53 PM 70.0 °F 53.1 °F 55% 29.91 in 10.0 mi South 19.6 mph 34.5 mph N/A   Overcast
3:53 PM 71.1 °F 54.0 °F 55% 29.89 in 10.0 mi South 17.3 mph 26.5 mph N/A   Overcast
4:53 PM 72.0 °F 54.0 °F 53% 29.88 in 10.0 mi South 26.5 mph 34.5 mph N/A   Overcast
5:53 PM 72.0 °F 54.0 °F 53% 29.87 in 10.0 mi South 18.4 mph 29.9 mph N/A   Overcast
6:53 PM 71.1 °F 53.1 °F 53% 29.86 in 10.0 mi South 23.0 mph 34.5 mph N/A   Overcast
7:53 PM 71.1 °F 54.0 °F 55% 29.90 in 10.0 mi South 17.3 mph 26.5 mph N/A   Overcast
8:53 PM 70.0 °F 55.0 °F 59% 29.91 in 10.0 mi South 10.4 mph - 0.00 in   Overcast
9:53 PM 69.1 °F 55.0 °F 61% 29.89 in 10.0 mi South 23.0 mph 31.1 mph N/A   Overcast
10:53 PM 66.9 °F 55.0 °F 66% 29.88 in 10.0 mi South 18.4 mph 26.5 mph N/A   Overcast
11:53 PM 66.9 °F 55.0 °F 66% 29.88 in 10.0 mi South 27.6 mph 38.0 mph N/A   Overcast